Powrót do katalogu

NADEZHDA 6 DEB

AktywnySSO
NORAD 36294·DEBRIS·🇷🇺 Russia

Wystrzelony Jun 28, 2000 z Plesetsk Cosmodrome

Loading…

Następne Przeloty (najbliższe 24 godziny)

TLE

ŚwieżeSource: Space-Track

Epoka: Sep 11, 2026, 05:02 UTC

1 36294U 00033E   26254.20986020  .00000670  00000-0  11102-3 0  9997
2 36294  97.8080 232.1145 0014665  52.9829 321.7602 14.73240293687044

Śledź NADEZHDA 6 DEB w czasie rzeczywistym z AllMySat

Download on the App Store